When you browse on this site, cookies collect data to enhance your experience and personalize the content and advertising you see.
Visit our Privacy Policy to learn more. By continuing to use the site, you agree to this use of cookies and data.
  • Em Portugal
  • Lista de países
  • Para 7 dias
  • Temperatura da água
  • Mapas de satélite
  • Mapa do tempo
  • Widgets de tempo
  • user-avatar
    Iniciar Sessão

    Previsão horária em Haradok

    Hoje, 27 Maio, Segunda-feira

    Tempo Temperatura Precipitação Vento Pressão Humidade
    00:00 +10°C° 0 mm 3 m/s 743 mmHg 88%
    01:00 +10°C° 0 mm 4 m/s 742 mmHg 88%
    02:00 +11°C° 0 mm 4 m/s 742 mmHg 86%
    03:00 +11°C° 0 mm 4 m/s 742 mmHg 85%
    04:00 +11°C° 0 mm 4 m/s 742 mmHg 85%
    05:00 +12°C° 0 mm 4 m/s 742 mmHg 85%
    06:00 +13°C° 0 mm 5 m/s 742 mmHg 83%
    07:00 +14°C° 0 mm 5 m/s 743 mmHg 81%
    08:00 +15°C° 0 mm 5 m/s 743 mmHg 78%
    09:00 +16°C° 0.1 mm 5 m/s 743 mmHg 76%
    10:00 +16°C° 0.1 mm 5 m/s 743 mmHg 73%
    11:00 +17°C° 0.1 mm 5 m/s 743 mmHg 71%
    12:00 +19°C° 0.3 mm 5 m/s 743 mmHg 69%
    13:00 +20°C° 0.3 mm 5 m/s 743 mmHg 68%
    14:00 +21°C° 0.3 mm 5 m/s 743 mmHg 66%
    15:00 +21°C° 0.8 mm 5 m/s 743 mmHg 71%
    16:00 +20°C° 0.8 mm 4 m/s 743 mmHg 76%
    17:00 +20°C° 0.8 mm 4 m/s 743 mmHg 81%
    18:00 +19°C° 0.4 mm 4 m/s 743 mmHg 83%
    19:00 +18°C° 0.4 mm 3 m/s 743 mmHg 86%
    20:00 +17°C° 0.4 mm 3 m/s 743 mmHg 88%
    21:00 +16°C° 0 mm 3 m/s 743 mmHg 90%
    22:00 +14°C° 0 mm 3 m/s 744 mmHg 92%
    23:00 +14°C° 0 mm 3 m/s 744 mmHg 94%

    Amanhã, 28 Maio, Terça-feira

    Tempo Temperatura Precipitação Vento Pressão Humidade
    00:00 +13°C° 0 mm 3 m/s 744 mmHg 94%
    01:00 +14°C° 0 mm 2 m/s 744 mmHg 95%
    02:00 +14°C° 0 mm 2 m/s 745 mmHg 95%
    03:00 +14°C° 0 mm 2 m/s 745 mmHg 95%
    04:00 +14°C° 0 mm 2 m/s 745 mmHg 95%
    05:00 +14°C° 0 mm 2 m/s 745 mmHg 95%
    06:00 +16°C° 0 mm 2 m/s 745 mmHg 90%
    07:00 +18°C° 0 mm 2 m/s 745 mmHg 85%
    08:00 +20°C° 0 mm 3 m/s 745 mmHg 81%
    09:00 +21°C° 0.3 mm 4 m/s 745 mmHg 77%
    10:00 +22°C° 0.3 mm 4 m/s 744 mmHg 74%
    11:00 +23°C° 0.3 mm 5 m/s 744 mmHg 71%
    12:00 +24°C° 0.3 mm 6 m/s 744 mmHg 67%
    13:00 +26°C° 0.3 mm 6 m/s 743 mmHg 63%
    14:00 +27°C° 0.3 mm 7 m/s 743 mmHg 59%
    15:00 +26°C° 0 mm 7 m/s 743 mmHg 58%
    16:00 +26°C° 0 mm 7 m/s 743 mmHg 58%
    17:00 +26°C° 0 mm 6 m/s 743 mmHg 57%
    18:00 +23°C° 0 mm 6 m/s 743 mmHg 62%
    19:00 +22°C° 0 mm 5 m/s 743 mmHg 67%
    20:00 +20°C° 0 mm 5 m/s 743 mmHg 72%
    21:00 +20°C° 0 mm 5 m/s 743 mmHg 73%
    22:00 +20°C° 0 mm 4 m/s 743 mmHg 75%
    23:00 +19°C° 0 mm 4 m/s 743 mmHg 76%

    Depois de amanhã, 29 Maio, Quarta-feira

    Tempo Temperatura Precipitação Vento Pressão Humidade
    00:00 +18°C° 0.3 mm 4 m/s 743 mmHg 81%
    01:00 +18°C° 0.3 mm 4 m/s 743 mmHg 86%
    02:00 +17°C° 0.3 mm 4 m/s 743 mmHg 91%
    03:00 +17°C° 0.4 mm 4 m/s 743 mmHg 91%
    04:00 +17°C° 0.4 mm 4 m/s 743 mmHg 92%
    05:00 +17°C° 0.4 mm 4 m/s 743 mmHg 92%
    06:00 +19°C° 0 mm 5 m/s 744 mmHg 86%
    07:00 +20°C° 0 mm 5 m/s 744 mmHg 81%
    08:00 +21°C° 0 mm 6 m/s 744 mmHg 76%
    09:00 +21°C° 0 mm 6 m/s 744 mmHg 73%
    10:00 +22°C° 0 mm 6 m/s 744 mmHg 70%
    11:00 +22°C° 0 mm 6 m/s 745 mmHg 67%
    12:00 +23°C° 0 mm 5 m/s 745 mmHg 66%
    13:00 +23°C° 0 mm 5 m/s 745 mmHg 66%
    14:00 +23°C° 0 mm 5 m/s 745 mmHg 65%
    15:00 +23°C° 1 mm 4 m/s 746 mmHg 71%
    16:00 +22°C° 1 mm 3 m/s 746 mmHg 77%
    17:00 +23°C° 1 mm 2 m/s 746 mmHg 83%
    18:00 +21°C° 2.1 mm 2 m/s 746 mmHg 87%
    19:00 +19°C° 2.1 mm 2 m/s 746 mmHg 91%
    20:00 +18°C° 2.1 mm 2 m/s 747 mmHg 95%
    21:00 +17°C° 1.2 mm 2 m/s 747 mmHg 96%
    22:00 +17°C° 1.2 mm 2 m/s 747 mmHg 97%
    23:00 +16°C° 1.2 mm 3 m/s 748 mmHg 97%

    30 Maio, Quinta-feira

    Tempo Temperatura Precipitação Vento Pressão Humidade
    00:00 +16°C° 0.2 mm 3 m/s 748 mmHg 97%
    01:00 +14°C° 0.2 mm 3 m/s 748 mmHg 97%
    02:00 +14°C° 0.2 mm 3 m/s 748 mmHg 97%
    03:00 +13°C° 0.2 mm 3 m/s 748 mmHg 97%
    04:00 +13°C° 0.2 mm 3 m/s 748 mmHg 97%
    05:00 +13°C° 0.2 mm 3 m/s 749 mmHg 96%
    06:00 +13°C° 0.3 mm 3 m/s 749 mmHg 96%
    07:00 +14°C° 0.3 mm 3 m/s 749 mmHg 95%
    08:00 +14°C° 0.3 mm 3 m/s 749 mmHg 94%
    09:00 +16°C° 0.2 mm 3 m/s 748 mmHg 92%
    10:00 +17°C° 0.2 mm 3 m/s 748 mmHg 90%
    11:00 +18°C° 0.2 mm 3 m/s 748 mmHg 88%
    12:00 +18°C° 0.9 mm 3 m/s 748 mmHg 90%
    13:00 +17°C° 0.9 mm 3 m/s 748 mmHg 92%
    14:00 +17°C° 0.9 mm 3 m/s 748 mmHg 94%
    15:00 +17°C° 0.3 mm 3 m/s 748 mmHg 93%
    16:00 +17°C° 0.3 mm 2 m/s 748 mmHg 93%
    17:00 +17°C° 0.3 mm 2 m/s 748 mmHg 92%
    18:00 +17°C° 0 mm 2 m/s 748 mmHg 93%
    19:00 +16°C° 0 mm 2 m/s 748 mmHg 94%
    20:00 +15°C° 0 mm 2 m/s 748 mmHg 95%
    21:00 +14°C° 0 mm 2 m/s 748 mmHg 96%
    22:00 +13°C° 0 mm 2 m/s 749 mmHg 97%
    23:00 +12°C° 0 mm 2 m/s 749 mmHg 98%

    31 Maio, Sexta-feira

    Tempo Temperatura Precipitação Vento Pressão Humidade
    00:00 +12°C° 0 mm 2 m/s 749 mmHg 98%
    01:00 +12°C° 0 mm 2 m/s 749 mmHg 98%
    02:00 +10°C° 0 mm 2 m/s 750 mmHg 98%
    03:00 +12°C° 0 mm 2 m/s 750 mmHg 97%
    04:00 +12°C° 0 mm 2 m/s 750 mmHg 96%
    05:00 +12°C° 0 mm 2 m/s 750 mmHg 96%
    06:00 +13°C° 0 mm 2 m/s 751 mmHg 87%
    07:00 +15°C° 0 mm 2 m/s 751 mmHg 79%
    08:00 +16°C° 0 mm 2 m/s 751 mmHg 71%
    09:00 +17°C° 0 mm 2 m/s 751 mmHg 61%
    10:00 +19°C° 0 mm 2 m/s 751 mmHg 52%
    11:00 +20°C° 0 mm 2 m/s 751 mmHg 43%
    12:00 +21°C° 0 mm 2 m/s 751 mmHg 40%
    13:00 +21°C° 0 mm 2 m/s 751 mmHg 38%
    14:00 +23°C° 0 mm 2 m/s 751 mmHg 36%
    15:00 +23°C° 0 mm 2 m/s 751 mmHg 40%
    16:00 +21°C° 0 mm 2 m/s 751 mmHg 44%
    17:00 +21°C° 0 mm 2 m/s 751 mmHg 47%
    18:00 +20°C° 0 mm 2 m/s 751 mmHg 54%
    19:00 +19°C° 0 mm 1 m/s 751 mmHg 61%
    20:00 +16°C° 0 mm 1 m/s 752 mmHg 67%
    21:00 +15°C° 0 mm 1 m/s 752 mmHg 71%
    22:00 +14°C° 0 mm 1 m/s 752 mmHg 75%
    23:00 +13°C° 0 mm 1 m/s 752 mmHg 79%

    1 Junho, Sábado

    Tempo Temperatura Precipitação Vento Pressão Humidade
    00:00 +13°C° 0 mm 2 m/s 752 mmHg 82%
    01:00 +12°C° 0 mm 2 m/s 752 mmHg 85%
    02:00 +12°C° 0 mm 2 m/s 752 mmHg 89%
    03:00 +12°C° 0 mm 2 m/s 752 mmHg 88%
    04:00 +12°C° 0 mm 2 m/s 752 mmHg 88%
    05:00 +12°C° 0 mm 2 m/s 753 mmHg 88%
    06:00 +14°C° 0 mm 2 m/s 753 mmHg 82%
    07:00 +16°C° 0 mm 2 m/s 753 mmHg 76%
    08:00 +18°C° 0 mm 2 m/s 753 mmHg 70%
    09:00 +19°C° 0 mm 2 m/s 753 mmHg 65%
    10:00 +20°C° 0 mm 2 m/s 753 mmHg 61%
    11:00 +21°C° 0 mm 2 m/s 753 mmHg 57%
    12:00 +23°C° 0.1 mm 2 m/s 753 mmHg 57%
    13:00 +23°C° 0.1 mm 2 m/s 753 mmHg 57%
    14:00 +23°C° 0.1 mm 2 m/s 753 mmHg 57%
    15:00 +23°C° 0.1 mm 2 m/s 753 mmHg 60%
    16:00 +21°C° 0.1 mm 2 m/s 753 mmHg 62%
    17:00 +20°C° 0.1 mm 2 m/s 752 mmHg 65%
    18:00 +19°C° 0 mm 3 m/s 752 mmHg 69%
    19:00 +18°C° 0 mm 3 m/s 752 mmHg 72%
    20:00 +16°C° 0 mm 3 m/s 752 mmHg 75%
    21:00 +14°C° 0 mm 3 m/s 752 mmHg 76%
    22:00 +13°C° 0 mm 3 m/s 753 mmHg 76%
    23:00 +12°C° 0 mm 3 m/s 753 mmHg 77%
    Mostrar mais